QPF
0.00 0.00 0.00 0.00 0.00 0.01 0.01 0.01 0.01 0.00 0.00 0.00 0.01 0.02 0.02 0.02 0.01 0.01 0.02 0.03 0.04 0.04 0.02 0.02 0.03 0.03 0.03 0.03 0.03 0.03 0.03 0.03 0.03 0.03 0.03 0.02 0.01 0.01 0.02 0.03 0.03 0.03 0.04 0.04
0.00 0.00 0.00 0.00 0.00 0.00 0.01 0.01 0.01 0.00 0.00 0.00 0.00 0.01 0.01 0.01 0.01 0.01 0.01 0.02 0.02 0.02 0.02 0.02 0.02 0.03 0.03 0.03 0.03 0.03 0.02 0.01 0.01 0.01 0.01 0.02 0.03 0.03 0.03 0.04 0.06 0.06 0.06 0.06
0.00 0.00 0.00 0.00 0.01 0.01 0.01 0.01 0.01 0.01 0.01 0.01 0.01 0.01 0.01 0.01 0.01 0.01 0.01 0.01 0.01 0.01 0.01 0.01 0.01 0.02 0.02 0.02 0.03 0.03 0.02 0.02 0.02 0.02 0.02 0.03 0.04 0.03 0.03 0.03 0.06 0.07 0.07 0.08
0.00 0.00 0.00 0.00 0.01 0.01 0.01 0.01 0.01 0.01 0.01 0.01 0.02 0.01 0.00 0.00 0.00 0.00 0.00 0.00 0.00 0.00 0.01 0.01 0.01 0.01 0.02 0.02 0.02 0.02 0.02 0.02 0.02 0.01 0.02 0.03 0.03 0.03 0.03 0.04 0.06 0.09 0.08 0.07
0.01 0.00 0.00 0.00 0.01 0.01 0.01 0.01 0.01 0.01 0.01 0.01 0.02 0.02 0.00 0.00 0.00 0.00 0.00 0.00 0.00 0.00 0.00 0.00 0.00 0.01 0.02 0.02 0.01 0.01 0.01 0.02 0.02 0.02 0.03 0.04 0.03 0.02 0.02 0.03 0.05 0.07 0.07 0.06
0.01 0.01 0.01 0.01 0.00 0.00 0.00 0.01 0.00 0.01 0.01 0.01 0.02 0.02 0.01 0.00 0.00 0.00 0.00 0.00 0.00 0.00 0.00 0.00 0.00 0.00 0.01 0.01 0.02 0.02 0.02 0.03 0.02 0.03 0.04 0.05 0.04 0.04 0.02 0.02 0.03 0.04 0.05 0.05
0.01 0.01 0.01 0.01 0.00 0.00 0.01 0.01 0.00 0.01 0.01 0.01 0.02 0.02 0.01 0.01 0.00 0.00 0.00 0.00 0.00 0.00 0.00 0.00 0.00 0.00 0.00 0.00 0.01 0.02 0.03 0.03 0.03 0.03 0.04 0.04 0.04 0.04 0.03 0.02 0.03 0.04 0.04 0.05
0.00 0.01 0.01 0.00 0.00 0.01 0.01 0.01 0.00 0.00 0.01 0.02 0.02 0.02 0.01 0.02 0.01 0.00 0.00 0.00 0.00 0.00 0.00 0.00 0.00 0.00 0.00 0.00 0.00 0.01 0.01 0.02 0.03 0.02 0.02 0.03 0.03 0.03 0.03 0.03 0.03 0.04 0.05 0.05
0.00 0.00 0.00 0.00 0.00 0.00 0.00 0.00 0.00 0.00 0.01 0.01 0.01 0.02 0.01 0.02 0.01 0.00 0.00 0.00 0.00 0.00 0.00 0.00 0.00 0.00 0.00 0.00 0.00 0.00 0.00 0.02 0.02 0.01 0.01 0.02 0.02 0.03 0.03 0.04 0.03 0.04 0.05 0.05
0.00 0.00 0.00 0.00 0.00 0.00 0.00 0.00 0.00 0.00 0.01 0.01 0.01 0.01 0.01 0.02 0.01 0.01 0.00 0.00 0.00 0.00 0.00 0.00 0.00 0.00 0.00 0.00 0.00 0.00 0.01 0.02 0.03 0.02 0.02 0.02 0.02 0.02 0.02 0.03 0.03 0.03 0.04 0.05
0.00 0.00 0.00 0.00 0.00 0.00 0.00 0.00 0.00 0.00 0.00 0.01 0.01 0.01 0.01 0.01 0.01 0.01 0.00 0.00 0.00 0.00 0.00 0.00 0.00 0.00 0.00 0.00 0.01 0.00 0.01 0.01 0.02 0.02 0.02 0.01 0.02 0.02 0.01 0.02 0.03 0.03 0.02 0.03
0.00 0.00 0.00 0.00 0.00 0.00 0.00 0.00 0.00 0.00 0.00 0.01 0.01 0.00 0.00 0.01 0.01 0.01 0.00 0.00 0.00 0.00 0.00 0.00 0.01 0.01 0.01 0.00 0.01 0.00 0.00 0.01 0.01 0.02 0.02 0.01 0.01 0.01 0.01 0.01 0.01 0.02 0.03 0.02
0.00 0.00 0.00 0.00 0.00 0.00 0.00 0.00 0.00 0.00 0.00 0.00 0.00 0.00 0.00 0.00 0.00 0.01 0.00 0.00 0.00 0.00 0.00 0.00 0.00 0.01 0.01 0.01 0.01 0.00 0.00 0.00 0.00 0.01 0.01 0.01 0.01 0.01 0.01 0.00 0.00 0.01 0.01 0.02
0.00 0.00 0.00 0.00 0.00 0.00 0.00 0.00 0.00 0.00 0.00 0.00 0.00 0.00 0.00 0.00 0.00 0.00 0.00 0.00 0.00 0.00 0.00 0.00 0.00 0.00 0.01 0.01 0.00 0.00 0.00 0.00 0.00 0.00 0.00 0.00 0.00 0.01 0.00 0.00 0.00 0.00 0.00 0.01
0.00 0.00 0.00 0.00 0.00 0.00 0.00 0.00 0.00 0.00 0.00 0.00 0.00 0.01 0.00 0.00 0.00 0.00 0.00 0.00 0.00 0.00 0.00 0.00 0.00 0.00 0.00 0.00 0.00 0.00 0.00 0.00 0.00 0.00 0.00 0.00 0.00 0.00 0.00 0.00 0.01 0.00 0.00 0.00
0.00 0.00 0.00 0.00 0.00 0.00 0.00 0.00 0.00 0.00 0.00 0.00 0.00 0.00 0.00 0.00 0.00 0.00 0.00 0.00 0.00 0.00 0.00 0.00 0.00 0.00 0.00 0.00 0.00 0.00 0.00 0.00 0.00 0.00 0.00 0.00 0.00 0.00 0.00 0.00 0.00 0.00 0.00 0.01
0.00 0.00 0.00 0.00 0.00 0.00 0.00 0.00 0.00 0.00 0.00 0.00 0.00 0.00 0.00 0.00 0.00 0.00 0.00 0.00 0.00 0.00 0.00 0.00 0.00 0.00 0.00 0.00 0.00 0.00 0.00 0.00 0.00 0.00 0.00 0.00 0.00 0.00 0.00 0.00 0.00 0.00 0.00 0.01
0.00 0.00 0.00 0.00 0.00 0.00 0.00 0.00 0.00 0.00 0.00 0.00 0.00 0.00 0.00 0.00 0.00 0.00 0.00 0.00 0.00 0.00 0.00 0.00 0.00 0.00 0.00 0.00 0.00 0.00 0.00 0.00 0.00 0.00 0.00 0.00 0.00 0.00 0.00 0.00 0.00 0.00 0.00 0.00
0.00 0.00 0.00 0.00 0.00 0.00 0.00 0.00 0.00 0.00 0.00 0.00 0.00 0.00 0.00 0.00 0.00 0.00 0.00 0.00 0.00 0.00 0.00 0.00 0.00 0.00 0.00 0.00 0.00 0.00 0.00 0.00 0.00 0.00 0.00 0.00 0.00 0.00 0.00 0.00 0.00 0.00 0.00 0.01
0.00 0.00 0.00 0.00 0.00 0.00 0.00 0.00 0.00 0.00 0.00 0.00 0.00 0.00 0.00 0.00 0.00 0.00 0.00 0.00 0.00 0.00 0.00 0.00 0.00 0.00 0.00 0.00 0.00 0.00 0.00 0.00 0.00 0.00 0.00 0.00 0.00 0.00 0.00 0.00 0.00 0.00 0.00 0.01
0.00 0.00 0.00 0.00 0.00 0.00 0.00 0.00 0.00 0.00 0.00 0.00 0.00 0.00 0.00 0.00 0.00 0.00 0.00 0.00 0.00 0.00 0.00 0.00 0.00 0.00 0.00 0.00 0.00 0.00 0.00 0.00 0.00 0.00 0.00 0.01 0.01 0.01 0.01 0.00 0.00 0.00 0.01 0.01
0.00 0.00 0.00 0.00 0.00 0.00 0.00 0.00 0.00 0.00 0.00 0.00 0.00 0.00 0.00 0.00 0.00 0.00 0.00 0.00 0.00 0.00 0.00 0.00 0.00 0.00 0.00 0.00 0.00 0.00 0.00 0.00 0.00 0.01 0.01 0.01 0.01 0.01 0.01 0.01 0.01 0.01 0.01 0.01
0.00 0.00 0.00 0.00 0.00 0.00 0.00 0.00 0.00 0.00 0.00 0.00 0.00 0.00 0.00 0.00 0.00 0.00 0.00 0.00 0.00 0.00 0.00 0.00 0.00 0.00 0.00 0.00 0.00 0.01 0.01 0.01 0.01 0.01 0.01 0.02 0.01 0.01 0.01 0.01 0.01 0.01 0.01 0.01
0.00 0.00 0.00 0.00 0.00 0.00 0.00 0.00 0.00 0.00 0.00 0.00 0.00 0.00 0.00 0.00 0.00 0.00 0.00 0.00 0.00 0.00 0.00 0.00 0.00 0.00 0.01 0.01 0.01 0.02 0.02 0.02 0.02 0.02 0.02 0.02 0.02 0.01 0.01 0.01 0.01 0.01 0.01 0.01
0.00 0.00 0.00 0.00 0.00 0.00 0.00 0.00 0.00 0.00 0.00 0.00 0.00 0.00 0.00 0.00 0.00 0.00 0.00 0.00 0.00 0.00 0.00 0.00 0.01 0.01 0.01 0.02 0.02 0.02 0.02 0.02 0.02 0.02 0.02 0.02 0.01 0.01 0.01 0.01 0.01 0.01 0.01 0.01
0.00 0.00 0.00 0.00 0.00 0.00 0.00 0.00 0.00 0.00 0.00 0.00 0.00 0.00 0.00 0.00 0.00 0.00 0.00 0.00 0.00 0.00 0.00 0.00 0.01 0.01 0.02 0.02 0.02 0.02 0.02 0.02 0.02 0.02 0.01 0.01 0.01 0.01 0.01 0.01 0.01 0.01 0.01 0.02
0.00 0.00 0.00 0.00 0.00 0.00 0.00 0.00 0.00 0.00 0.00 0.00 0.00 0.00 0.00 0.00 0.00 0.00 0.00 0.00 0.00 0.01 0.01 0.01 0.01 0.01 0.01 0.01 0.01 0.01 0.01 0.01 0.01 0.01 0.01 0.01 0.01 0.01 0.01 0.02 0.02 0.02 0.02 0.02
MSLP
1019.35 1019.18 1019.03 1018.86 1018.67 1018.43 1018.12 1017.76 1017.34 1016.91 1016.49 1016.14 1015.89 1015.77 1015.81 1015.99 1016.29 1016.68 1017.09 1017.48 1017.79 1017.99 1018.05 1017.98 1017.78 1017.48 1017.10 1016.69 1016.27 1015.86 1015.47 1015.09 1014.71 1014.33 1013.93 1013.49 1013.01 1012.49 1011.93 1011.33 1010.72 1010.08 1009.43 1008.77
1019.33 1019.05 1018.77 1018.49 1018.19 1017.86 1017.50 1017.11 1016.70 1016.29 1015.91 1015.60 1015.39 1015.30 1015.34 1015.52 1015.81 1016.18 1016.59 1016.98 1017.32 1017.57 1017.69 1017.70 1017.58 1017.37 1017.07 1016.72 1016.34 1015.95 1015.55 1015.15 1014.74 1014.30 1013.84 1013.34 1012.79 1012.20 1011.57 1010.91 1010.22 1009.53 1008.83 1008.13
1019.26 1018.85 1018.42 1017.99 1017.56 1017.13 1016.71 1016.29 1015.89 1015.52 1015.20 1014.96 1014.81 1014.76 1014.84 1015.03 1015.31 1015.67 1016.06 1016.45 1016.81 1017.09 1017.27 1017.35 1017.33 1017.20 1016.98 1016.70 1016.37 1016.00 1015.60 1015.18 1014.73 1014.24 1013.72 1013.15 1012.54 1011.88 1011.18 1010.45 1009.70 1008.94 1008.19 1007.44
1019.14 1018.57 1018.00 1017.42 1016.86 1016.34 1015.86 1015.44 1015.06 1014.75 1014.50 1014.34 1014.26 1014.28 1014.38 1014.58 1014.86 1015.19 1015.56 1015.94 1016.29 1016.59 1016.81 1016.96 1017.00 1016.95 1016.82 1016.60 1016.32 1015.97 1015.57 1015.13 1014.64 1014.11 1013.53 1012.90 1012.23 1011.51 1010.75 1009.97 1009.17 1008.35 1007.54 1006.74
1018.93 1018.23 1017.52 1016.82 1016.16 1015.57 1015.07 1014.65 1014.32 1014.07 1013.91 1013.83 1013.83 1013.90 1014.04 1014.24 1014.50 1014.80 1015.13 1015.47 1015.80 1016.10 1016.34 1016.53 1016.63 1016.65 1016.57 1016.41 1016.16 1015.84 1015.44 1014.98 1014.46 1013.89 1013.26 1012.59 1011.87 1011.11 1010.31 1009.48 1008.64 1007.78 1006.92 1006.06
1018.59 1017.80 1016.99 1016.21 1015.49 1014.87 1014.37 1013.99 1013.72 1013.55 1013.48 1013.49 1013.55 1013.66 1013.82 1014.01 1014.24 1014.49 1014.76 1015.05 1015.35 1015.63 1015.88 1016.08 1016.22 1016.28 1016.26 1016.13 1015.92 1015.61 1015.21 1014.74 1014.19 1013.59 1012.93 1012.22 1011.47 1010.69 1009.87 1009.02 1008.15 1007.26 1006.36 1005.45
1018.10 1017.24 1016.38 1015.57 1014.85 1014.25 1013.79 1013.46 1013.27 1013.19 1013.20 1013.27 1013.39 1013.53 1013.69 1013.85 1014.04 1014.23 1014.45 1014.69 1014.93 1015.19 1015.43 1015.64 1015.80 1015.89 1015.90 1015.80 1015.61 1015.31 1014.91 1014.42 1013.87 1013.24 1012.56 1011.84 1011.08 1010.29 1009.46 1008.61 1007.73 1006.82 1005.88 1004.92
1017.40 1016.53 1015.68 1014.89 1014.21 1013.67 1013.28 1013.04 1012.93 1012.93 1013.01 1013.13 1013.28 1013.43 1013.57 1013.71 1013.84 1013.99 1014.15 1014.33 1014.54 1014.77 1015.00 1015.22 1015.39 1015.50 1015.53 1015.45 1015.27 1014.98 1014.58 1014.09 1013.52 1012.89 1012.21 1011.48 1010.73 1009.94 1009.12 1008.27 1007.39 1006.46 1005.50 1004.51
1016.50 1015.66 1014.86 1014.15 1013.55 1013.11 1012.81 1012.66 1012.63 1012.70 1012.82 1012.97 1013.13 1013.27 1013.39 1013.50 1013.59 1013.69 1013.81 1013.97 1014.15 1014.37 1014.60 1014.82 1015.01 1015.13 1015.18 1015.12 1014.94 1014.65 1014.26 1013.77 1013.20 1012.57 1011.89 1011.18 1010.44 1009.67 1008.87 1008.03 1007.15 1006.22 1005.24 1004.21
1015.44 1014.66 1013.94 1013.33 1012.85 1012.52 1012.33 1012.26 1012.30 1012.41 1012.56 1012.72 1012.86 1012.99 1013.08 1013.16 1013.23 1013.31 1013.41 1013.56 1013.75 1013.98 1014.22 1014.46 1014.66 1014.81 1014.86 1014.81 1014.64 1014.36 1013.97 1013.49 1012.93 1012.31 1011.66 1010.97 1010.25 1009.50 1008.71 1007.89 1007.01 1006.07 1005.08 1004.03
1014.27 1013.57 1012.96 1012.48 1012.12 1011.90 1011.80 1011.80 1011.88 1012.01 1012.15 1012.29 1012.42 1012.51 1012.59 1012.65 1012.71 1012.80 1012.93 1013.10 1013.33 1013.58 1013.86 1014.12 1014.35 1014.51 1014.58 1014.54 1014.38 1014.10 1013.72 1013.25 1012.71 1012.12 1011.49 1010.83 1010.14 1009.41 1008.64 1007.82 1006.95 1006.00 1004.99 1003.92
1013.06 1012.46 1011.97 1011.61 1011.37 1011.24 1011.21 1011.25 1011.34 1011.45 1011.57 1011.68 1011.76 1011.83 1011.89 1011.96 1012.05 1012.18 1012.36 1012.59 1012.87 1013.18 1013.50 1013.81 1014.06 1014.24 1014.32 1014.29 1014.13 1013.87 1013.50 1013.05 1012.54 1011.98 1011.38 1010.75 1010.09 1009.39 1008.64 1007.83 1006.94 1005.98 1004.94 1003.85
1011.89 1011.39 1011.02 1010.77 1010.62 1010.57 1010.57 1010.62 1010.68 1010.75 1010.82 1010.87 1010.92 1010.96 1011.02 1011.12 1011.25 1011.45 1011.71 1012.02 1012.38 1012.77 1013.15 1013.49 1013.78 1013.97 1014.06 1014.03 1013.89 1013.63 1013.28 1012.86 1012.38 1011.86 1011.30 1010.71 1010.09 1009.41 1008.67 1007.85 1006.96 1005.98 1004.92 1003.79
1010.80 1010.41 1010.15 1009.99 1009.91 1009.89 1009.89 1009.91 1009.92 1009.93 1009.92 1009.91 1009.92 1009.95 1010.02 1010.16 1010.37 1010.65 1011.01 1011.42 1011.87 1012.34 1012.78 1013.17 1013.48 1013.69 1013.79 1013.76 1013.61 1013.37 1013.04 1012.65 1012.21 1011.73 1011.22 1010.67 1010.08 1009.43 1008.71 1007.89 1006.99 1005.98 1004.89 1003.74
1009.81 1009.53 1009.36 1009.27 1009.23 1009.21 1009.18 1009.14 1009.08 1009.00 1008.92 1008.85 1008.81 1008.84 1008.94 1009.14 1009.43 1009.81 1010.28 1010.80 1011.35 1011.89 1012.40 1012.83 1013.17 1013.38 1013.48 1013.45 1013.31 1013.08 1012.77 1012.41 1012.00 1011.57 1011.11 1010.61 1010.06 1009.44 1008.73 1007.93 1007.02 1006.00 1004.89 1003.71
1008.88 1008.71 1008.62 1008.59 1008.56 1008.52 1008.44 1008.32 1008.17 1008.01 1007.85 1007.72 1007.66 1007.69 1007.84 1008.10 1008.48 1008.97 1009.55 1010.17 1010.82 1011.44 1012.00 1012.47 1012.82 1013.05 1013.15 1013.12 1012.98 1012.76 1012.47 1012.14 1011.77 1011.39 1010.97 1010.52 1010.01 1009.43 1008.75 1007.97 1007.06 1006.04 1004.93 1003.74
1008.00 1007.93 1007.92 1007.92 1007.89 1007.80 1007.66 1007.46 1007.23 1006.98 1006.75 1006.58 1006.52 1006.57 1006.76 1007.10 1007.58 1008.17 1008.85 1009.57 1010.30 1010.99 1011.60 1012.10 1012.48 1012.71 1012.81 1012.79 1012.66 1012.45 1012.18 1011.88 1011.55 1011.21 1010.84 1010.43 1009.97 1009.43 1008.78 1008.03 1007.15 1006.15 1005.05 1003.88
1007.14 1007.17 1007.21 1007.23 1007.18 1007.05 1006.85 1006.57 1006.26 1005.95 1005.68 1005.49 1005.43 1005.52 1005.77 1006.19 1006.76 1007.44 1008.22 1009.03 1009.83 1010.57 1011.22 1011.76 1012.15 1012.39 1012.50 1012.49 1012.37 1012.17 1011.93 1011.66 1011.36 1011.06 1010.73 1010.36 1009.94 1009.45 1008.85 1008.14 1007.31 1006.36 1005.31 1004.18
1006.30 1006.41 1006.50 1006.52 1006.45 1006.28 1006.02 1005.69 1005.33 1004.98 1004.69 1004.51 1004.48 1004.62 1004.93 1005.42 1006.07 1006.84 1007.68 1008.56 1009.41 1010.21 1010.89 1011.45 1011.86 1012.13 1012.25 1012.25 1012.16 1011.99 1011.77 1011.52 1011.26 1010.98 1010.69 1010.36 1009.98 1009.53 1008.99 1008.34 1007.58 1006.71 1005.73 1004.68
1005.51 1005.68 1005.79 1005.81 1005.72 1005.52 1005.22 1004.86 1004.48 1004.13 1003.86 1003.71 1003.72 1003.91 1004.29 1004.85 1005.56 1006.39 1007.29 1008.21 1009.10 1009.92 1010.63 1011.21 1011.65 1011.93 1012.09 1012.12 1012.05 1011.91 1011.72 1011.50 1011.27 1011.01 1010.74 1010.45 1010.10 1009.70 1009.22 1008.64 1007.97 1007.19 1006.32 1005.38
1004.81 1005.01 1005.13 1005.15 1005.04 1004.82 1004.52 1004.16 1003.79 1003.47 1003.23 1003.14 1003.21 1003.47 1003.91 1004.52 1005.28 1006.14 1007.07 1008.00 1008.91 1009.74 1010.46 1011.06 1011.51 1011.83 1012.02 1012.08 1012.05 1011.95 1011.80 1011.61 1011.40 1011.17 1010.92 1010.65 1010.33 1009.97 1009.55 1009.05 1008.47 1007.81 1007.06 1006.25
1004.24 1004.45 1004.58 1004.58 1004.47 1004.25 1003.96 1003.63 1003.31 1003.05 1002.89 1002.86 1003.01 1003.33 1003.82 1004.47 1005.25 1006.12 1007.04 1007.97 1008.86 1009.68 1010.40 1011.00 1011.47 1011.82 1012.04 1012.15 1012.17 1012.11 1012.00 1011.84 1011.66 1011.45 1011.21 1010.96 1010.67 1010.35 1009.98 1009.56 1009.07 1008.52 1007.91 1007.24
1003.83 1004.04 1004.16 1004.16 1004.05 1003.86 1003.61 1003.34 1003.09 1002.91 1002.84 1002.90 1003.12 1003.50 1004.03 1004.70 1005.48 1006.33 1007.22 1008.11 1008.96 1009.74 1010.44 1011.03 1011.52 1011.88 1012.14 1012.30 1012.37 1012.36 1012.29 1012.17 1012.02 1011.83 1011.61 1011.38 1011.11 1010.82 1010.50 1010.13 1009.73 1009.29 1008.80 1008.27
1003.57 1003.77 1003.88 1003.88 1003.80 1003.65 1003.46 1003.28 1003.13 1003.06 1003.09 1003.25 1003.54 1003.98 1004.54 1005.21 1005.96 1006.76 1007.59 1008.41 1009.20 1009.93 1010.59 1011.16 1011.63 1012.02 1012.31 1012.51 1012.62 1012.67 1012.65 1012.58 1012.46 1012.29 1012.10 1011.88 1011.63 1011.36 1011.07 1010.76 1010.43 1010.07 1009.68 1009.27
1003.40 1003.59 1003.69 1003.72 1003.68 1003.60 1003.50 1003.43 1003.40 1003.45 1003.59 1003.85 1004.21 1004.69 1005.27 1005.93 1006.64 1007.38 1008.13 1008.87 1009.57 1010.23 1010.83 1011.36 1011.82 1012.20 1012.52 1012.75 1012.92 1013.02 1013.05 1013.02 1012.94 1012.81 1012.64 1012.43 1012.20 1011.94 1011.68 1011.40 1011.11 1010.82 1010.51 1010.18
1003.24 1003.42 1003.54 1003.61 1003.63 1003.64 1003.66 1003.70 1003.81 1003.99 1004.25 1004.60 1005.05 1005.57 1006.15 1006.78 1007.44 1008.11 1008.78 1009.42 1010.03 1010.61 1011.14 1011.62 1012.05 1012.43 1012.76 1013.02 1013.23 1013.37 1013.46 1013.48 1013.44 1013.34 1013.19 1013.00 1012.78 1012.54 1012.29 1012.02 1011.76 1011.50 1011.23 1010.95
1002.97 1003.17 1003.33 1003.46 1003.57 1003.69 1003.83 1004.02 1004.26 1004.57 1004.96 1005.41 1005.92 1006.48 1007.07 1007.68 1008.29 1008.89 1009.47 1010.02 1010.55 1011.04 1011.50 1011.93 1012.33 1012.69 1013.02 1013.31 1013.55 1013.73 1013.85 1013.92 1013.92 1013.85 1013.73 1013.56 1013.35 1013.12 1012.86 1012.60 1012.34 1012.08 1011.83 1011.58
Thickness
5530 5531 5528 5530 5532 5530 5527 5535 5538 5551 5549 5552 5550 5545 5543 5540 5536 5532 5530 5529 5527 5526 5526 5524 5524 5524 5524 5525 5525 5525 5526 5527 5528 5529 5530 5530 5530 5531 5531 5531 5532 5533 5534 5534
5529 5531 5528 5529 5536 5535 5534 5536 5539 5543 5548 5554 5549 5544 5542 5540 5536 5533 5532 5529 5527 5525 5524 5523 5523 5522 5522 5522 5521 5521 5522 5523 5523 5523 5524 5525 5525 5524 5525 5525 5526 5527 5528 5527
5536 5532 5532 5545 5548 5542 5542 5542 5543 5545 5552 5550 5546 5543 5544 5542 5538 5535 5534 5531 5528 5526 5524 5523 5521 5520 5519 5519 5518 5519 5519 5519 5518 5518 5519 5519 5519 5519 5520 5520 5520 5520 5520 5518
5528 5533 5537 5558 5544 5543 5542 5544 5543 5545 5548 5546 5546 5545 5544 5542 5540 5537 5534 5530 5527 5525 5523 5521 5519 5518 5517 5516 5516 5516 5516 5515 5514 5514 5515 5514 5514 5514 5513 5513 5512 5512 5511 5509
5523 5534 5550 5555 5544 5539 5540 5548 5548 5546 5546 5545 5542 5540 5545 5541 5538 5537 5534 5531 5528 5524 5521 5519 5517 5516 5515 5514 5514 5513 5512 5511 5511 5510 5510 5510 5509 5508 5507 5506 5505 5504 5503 5501
5520 5527 5544 5559 5545 5538 5539 5550 5552 5546 5545 5541 5537 5547 5554 5543 5536 5534 5531 5528 5525 5522 5519 5517 5515 5513 5512 5512 5511 5510 5509 5507 5506 5506 5505 5505 5504 5502 5501 5500 5498 5497 5495 5493
5520 5525 5548 5551 5538 5535 5544 5557 5549 5544 5543 5539 5541 5548 5546 5538 5534 5531 5528 5525 5522 5519 5517 5515 5512 5510 5509 5508 5507 5505 5503 5502 5502 5501 5501 5500 5499 5497 5495 5493 5492 5490 5488 5486
5521 5523 5544 5542 5534 5540 5552 5547 5543 5542 5540 5538 5539 5536 5534 5532 5529 5527 5524 5521 5518 5516 5514 5511 5508 5506 5506 5505 5503 5501 5499 5498 5497 5497 5495 5494 5492 5490 5488 5486 5485 5483 5481 5479
5532 5546 5548 5539 5542 5544 5540 5541 5540 5539 5537 5534 5532 5531 5530 5528 5526 5524 5521 5518 5515 5513 5510 5507 5505 5503 5503 5501 5498 5496 5495 5494 5493 5491 5489 5487 5485 5483 5481 5479 5477 5475 5473 5471
5523 5539 5540 5536 5536 5535 5533 5535 5536 5534 5532 5529 5529 5529 5526 5524 5522 5519 5517 5514 5510 5507 5506 5504 5502 5499 5498 5495 5492 5491 5491 5489 5487 5485 5483 5480 5478 5475 5473 5471 5469 5466 5464 5461
5523 5537 5534 5536 5534 5533 5532 5529 5528 5527 5526 5525 5525 5524 5522 5520 5518 5515 5512 5509 5506 5504 5502 5500 5497 5494 5492 5489 5488 5487 5485 5483 5481 5478 5476 5474 5471 5468 5465 5463 5459 5456 5454 5451
5537 5542 5537 5542 5537 5530 5527 5526 5525 5523 5522 5520 5519 5520 5518 5516 5513 5510 5507 5504 5501 5499 5497 5495 5492 5490 5486 5484 5482 5481 5479 5477 5474 5471 5468 5466 5464 5460 5456 5453 5449 5446 5443 5440
5534 5531 5529 5531 5527 5524 5522 5522 5520 5518 5518 5517 5515 5514 5512 5510 5507 5504 5501 5499 5497 5495 5492 5489 5487 5484 5481 5478 5476 5474 5473 5470 5467 5464 5461 5458 5455 5453 5450 5446 5441 5437 5434 5431
5520 5517 5519 5521 5520 5518 5517 5514 5512 5511 5511 5510 5509 5507 5505 5504 5501 5498 5496 5494 5491 5488 5486 5483 5480 5478 5475 5472 5469 5467 5465 5462 5459 5456 5453 5450 5447 5444 5441 5438 5434 5431 5426 5423
5513 5511 5514 5515 5512 5509 5506 5504 5504 5505 5504 5503 5501 5500 5498 5497 5495 5494 5491 5487 5484 5482 5479 5477 5474 5472 5469 5465 5462 5460 5457 5455 5451 5448 5444 5441 5438 5435 5432 5428 5424 5421 5418 5415
5507 5504 5502 5503 5503 5502 5499 5498 5498 5501 5500 5497 5495 5494 5493 5491 5489 5487 5484 5481 5478 5477 5475 5472 5469 5466 5462 5458 5455 5453 5450 5445 5442 5439 5436 5432 5428 5425 5422 5418 5415 5411 5408 5405
5499 5498 5496 5495 5497 5497 5496 5495 5495 5495 5494 5492 5490 5488 5485 5482 5481 5479 5477 5475 5473 5471 5469 5466 5463 5459 5455 5451 5448 5445 5442 5438 5433 5430 5427 5423 5419 5416 5412 5408 5404 5401 5397 5394
5499 5499 5497 5496 5494 5492 5490 5488 5487 5486 5486 5485 5482 5479 5477 5476 5475 5474 5471 5467 5464 5462 5461 5458 5455 5451 5447 5444 5440 5437 5433 5430 5425 5422 5418 5414 5410 5406 5402 5398 5394 5390 5387 5383
5490 5489 5488 5486 5485 5483 5482 5481 5480 5479 5477 5474 5472 5471 5471 5470 5469 5467 5462 5458 5457 5456 5455 5451 5446 5442 5439 5435 5431 5428 5424 5420 5416 5412 5408 5404 5400 5396 5391 5387 5383 5380 5376 5373
5482 5480 5478 5476 5474 5472 5472 5472 5471 5469 5467 5465 5463 5462 5461 5460 5458 5455 5453 5452 5453 5452 5449 5443 5439 5435 5431 5427 5422 5419 5415 5411 5407 5403 5398 5394 5390 5386 5381 5377 5373 5369 5366 5363
5474 5471 5468 5466 5465 5463 5463 5462 5460 5460 5458 5456 5455 5455 5454 5451 5448 5446 5444 5445 5445 5440 5437 5433 5430 5427 5422 5418 5413 5409 5406 5402 5398 5393 5389 5384 5380 5375 5371 5366 5362 5358 5355 5352
5464 5462 5460 5458 5455 5455 5453 5452 5451 5450 5449 5447 5445 5444 5442 5440 5438 5437 5437 5437 5436 5430 5427 5424 5421 5417 5413 5408 5404 5400 5396 5392 5388 5383 5378 5374 5369 5364 5360 5355 5351 5347 5344 5341
5454 5452 5450 5448 5446 5445 5443 5441 5440 5440 5439 5437 5435 5434 5433 5433 5431 5429 5429 5427 5423 5420 5417 5415 5411 5407 5402 5398 5394 5390 5385 5381 5377 5372 5368 5363 5358 5353 5348 5344 5340 5336 5333 5329
5444 5442 5440 5438 5434 5433 5433 5433 5429 5428 5427 5426 5425 5424 5423 5421 5420 5420 5419 5416 5412 5409 5407 5404 5400 5397 5392 5388 5384 5380 5376 5371 5366 5362 5357 5352 5347 5342 5337 5333 5329 5325 5322 5319
5433 5431 5428 5425 5425 5426 5425 5421 5418 5416 5415 5415 5414 5413 5412 5412 5411 5409 5406 5404 5401 5397 5395 5392 5389 5385 5382 5378 5374 5370 5365 5361 5356 5352 5347 5342 5337 5333 5328 5324 5319 5316 5313 5309
5423 5423 5422 5420 5419 5418 5414 5411 5409 5408 5406 5405 5404 5402 5400 5399 5398 5396 5394 5392 5389 5386 5384 5381 5378 5374 5371 5367 5363 5359 5355 5350 5346 5341 5337 5332 5327 5323 5319 5315 5310 5307 5304 5301
5413 5412 5410 5409 5407 5405 5403 5401 5400 5399 5397 5395 5393 5391 5389 5387 5385 5384 5382 5380 5378 5375 5372 5369 5366 5363 5359 5355 5352 5348 5344 5340 5336 5331 5327 5322 5318 5314 5310 5306 5302 5299 5295 5292